﻿"﻿最低氣溫 (攝氏度) - �K���W"
"Minimum Temperature (°C) - Shau Kei Wan"
年/Year,月/Month,日/Day,數值/Value,"數據完整性/data Completeness"
2007,10,1,27.1,#
2007,10,2,23.7,C
2007,10,3,23.7,C
2007,10,4,25.7,C
2007,10,5,25.6,#
2007,10,6,27.2,#
2007,10,7,28.0,C
2007,10,8,25.5,C
2007,10,9,22.6,#
2007,10,10,23.1,C
2007,10,11,24.2,#
2007,10,12,24.6,#
2007,10,13,22.4,#
2007,10,14,23.7,#
2007,10,15,22.8,#
2007,10,16,21.8,#
2007,10,17,21.3,C
2007,10,18,21.3,#
2007,10,19,21.7,#
2007,10,20,21.6,#
2007,10,21,22.0,#
2007,10,22,22.2,C
2007,10,23,22.4,#
2007,10,24,23.1,#
2007,10,25,23.3,#
2007,10,26,23.0,#
2007,10,27,22.7,#
2007,10,28,23.1,C
2007,10,29,22.8,C
2007,10,30,20.3,C
2007,10,31,21.2,#
2007,11,1,16.9,#
2007,11,2,15.5,#
2007,11,3,18.3,#
2007,11,4,18.7,#
2007,11,5,18.8,#
2007,11,6,20.3,#
2007,11,7,20.6,#
2007,11,8,17.9,#
2007,11,9,21.0,#
2007,11,10,19.6,#
2007,11,11,19.9,#
2007,11,12,19.2,C
2007,11,13,19.1,C
2007,11,14,19.7,#
2007,11,15,19.6,#
2007,11,16,20.8,#
2007,11,17,20.8,#
2007,11,18,19.8,#
2007,11,19,17.8,#
2007,11,20,16.2,#
2007,11,21,17.8,#
2007,11,22,18.4,#
2007,11,23,17.9,C
2007,11,24,18.8,#
2007,11,25,19.0,#
2007,11,26,19.9,#
2007,11,27,16.1,#
2007,11,28,14.0,C
2007,11,29,13.5,C
2007,11,30,14.1,C
2007,12,1,16.4,#
2007,12,2,18.2,C
2007,12,3,17.7,#
2007,12,4,15.3,#
2007,12,5,16.9,C
2007,12,6,17.1,C
2007,12,7,16.7,#
2007,12,8,16.7,C
2007,12,9,16.9,C
2007,12,10,18.1,#
2007,12,11,18.8,C
2007,12,12,19.1,#
2007,12,13,18.2,#
2007,12,14,17.3,#
2007,12,15,17.6,C
2007,12,16,18.1,#
2007,12,17,18.7,#
2007,12,18,19.0,C
2007,12,19,17.5,C
2007,12,20,17.7,#
2007,12,21,18.7,C
2007,12,22,18.7,#
2007,12,23,17.5,#
2007,12,24,16.2,#
2007,12,25,15.2,C
2007,12,26,15.3,C
2007,12,27,15.9,#
2007,12,28,16.6,#
2007,12,29,14.7,#
2007,12,30,13.4,C
2007,12,31,11.3,#
2008,1,1,9.5,C
2008,1,2,9.8,#
2008,1,3,11.3,C
2008,1,4,13.2,C
2008,1,5,13.5,#
2008,1,6,15.5,C
2008,1,7,16.7,C
2008,1,8,18.8,#
2008,1,9,18.7,#
2008,1,10,18.8,#
2008,1,11,18.6,C
2008,1,12,19.0,#
2008,1,13,14.5,C
2008,1,14,12.8,#
2008,1,15,11.6,#
2008,1,16,11.5,C
2008,1,17,10.8,C
2008,1,18,11.7,C
2008,1,19,15.1,C
2008,1,20,15.4,C
2008,1,21,16.3,#
2008,1,22,14.7,#
2008,1,23,14.0,#
2008,1,24,11.1,#
2008,1,25,10.8,C
2008,1,26,11.0,#
2008,1,27,9.9,C
2008,1,28,10.8,C
2008,1,29,11.4,#
2008,1,30,9.5,C
2008,1,31,8.0,C
2008,2,1,9.1,C
2008,2,2,7.8,#
2008,2,3,8.0,C
2008,2,4,9.5,C
2008,2,5,11.9,#
2008,2,6,8.9,#
2008,2,7,7.6,C
2008,2,8,9.2,C
2008,2,9,7.7,#
2008,2,10,9.9,C
2008,2,11,8.1,#
2008,2,12,7.9,#
2008,2,13,9.0,C
2008,2,14,10.4,C
2008,2,15,10.0,C
2008,2,16,11.0,C
2008,2,17,12.1,#
2008,2,18,13.3,#
2008,2,19,11.7,#
2008,2,20,11.7,#
2008,2,21,12.0,#
2008,2,22,15.2,#
2008,2,23,14.6,#
2008,2,24,13.0,C
2008,2,25,12.4,#
2008,2,26,12.8,C
2008,2,27,10.6,C
2008,2,28,10.4,#
2008,2,29,12.9,#
2008,3,1,12.2,C
2008,3,2,14.4,C
2008,3,3,15.8,#
2008,3,4,15.3,#
2008,3,5,14.6,#
2008,3,6,14.1,C
2008,3,7,15.8,#
2008,3,8,15.2,#
2008,3,9,15.4,C
2008,3,10,16.2,#
2008,3,11,16.7,#
2008,3,12,17.5,#
2008,3,13,17.7,#
2008,3,14,18.7,#
2008,3,15,17.8,#
2008,3,16,17.9,C
2008,3,17,19.4,C
2008,3,18,18.7,C
2008,3,19,18.6,#
2008,3,20,18.3,#
2008,3,21,17.8,#
2008,3,22,19.1,C
2008,3,23,17.8,#
2008,3,24,17.7,C
2008,3,25,17.7,#
2008,3,26,15.1,#
2008,3,27,16.2,#
2008,3,28,20.2,#
2008,3,29,21.1,C
2008,3,30,20.5,#
2008,3,31,16.2,#
2008,4,1,16.0,C
2008,4,2,16.6,#
2008,4,3,17.2,#
2008,4,4,18.0,C
2008,4,5,19.7,C
2008,4,6,20.2,#
2008,4,7,22.2,#
2008,4,8,23.0,#
2008,4,9,24.4,#
2008,4,10,23.0,#
2008,4,11,20.5,#
2008,4,12,20.5,C
2008,4,13,20.8,#
2008,4,14,20.8,#
2008,4,15,21.0,#
2008,4,16,21.6,#
2008,4,17,22.4,#
2008,4,18,21.4,#
2008,4,19,20.7,C
2008,4,20,23.9,C
2008,4,21,23.5,C
2008,4,22,23.2,C
2008,4,23,20.1,C
2008,4,24,18.8,#
2008,4,25,19.6,C
2008,4,26,19.6,C
2008,4,27,21.6,C
2008,4,28,19.9,#
2008,4,29,20.6,#
2008,4,30,21.7,#
2008,5,1,22.2,C
2008,5,2,22.5,#
2008,5,3,22.6,C
2008,5,4,23.1,#
2008,5,5,20.7,#
2008,5,6,19.4,#
2008,5,7,21.0,#
2008,5,8,23.7,C
2008,5,9,25.8,#
2008,5,10,21.2,#
2008,5,11,19.8,#
2008,5,12,22.1,#
2008,5,13,21.6,#
2008,5,14,22.0,#
2008,5,15,21.6,#
2008,5,16,22.1,#
2008,5,17,22.5,C
2008,5,18,22.8,#
2008,5,19,21.4,#
2008,5,20,19.9,#
2008,5,21,20.0,#
2008,5,22,22.3,#
2008,5,23,24.1,#
2008,5,24,25.1,#
2008,5,25,25.8,#
2008,5,26,25.5,#
2008,5,27,26.7,#
2008,5,28,26.3,#
2008,5,29,23.5,#
2008,5,30,24.0,#
2008,5,31,24.4,#
2008,6,1,22.6,#
2008,6,2,24.9,#
2008,6,3,23.4,#
2008,6,4,23.9,#
2008,6,5,23.6,#
2008,6,6,22.4,#
2008,6,7,22.4,#
2008,6,8,26.6,#
2008,6,9,26.7,C
2008,6,10,26.6,#
2008,6,11,25.3,#
2008,6,12,26.0,C
2008,6,13,23.8,#
2008,6,14,23.4,#
2008,6,15,24.5,C
2008,6,16,24.9,C
2008,6,17,24.2,#
2008,6,18,24.5,C
2008,6,19,24.3,#
2008,6,20,26.2,C
2008,6,21,25.7,#
2008,6,22,26.1,C
2008,6,23,25.9,C
2008,6,24,25.5,#
2008,6,25,24.5,#
2008,6,26,23.7,C
2008,6,27,23.7,#
2008,6,28,24.2,C
2008,6,29,24.4,#
2008,6,30,24.6,#
2008,7,1,25.6,#
2008,7,2,26.6,#
2008,7,3,26.4,#
2008,7,4,26.3,#
2008,7,5,25.9,#
2008,7,6,22.9,#
2008,7,7,23.8,C
2008,7,8,24.1,#
2008,7,9,23.9,#
2008,7,10,23.4,#
2008,7,11,24.5,#
2008,7,12,22.1,#
2008,7,13,24.5,#
2008,7,14,24.2,#
2008,7,15,24.0,#
2008,7,16,26.1,#
2008,7,17,26.6,#
2008,7,18,27.8,#
2008,7,19,26.3,#
2008,7,20,27.2,#
2008,7,21,26.6,#
2008,7,22,27.6,#
2008,7,23,27.5,#
2008,7,24,27.2,#
2008,7,25,27.6,#
2008,7,26,27.9,#
2008,7,27,28.5,#
2008,7,28,27.7,#
2008,7,29,28.1,#
2008,7,30,26.9,#
2008,7,31,25.6,#
2008,8,1,25.2,#
2008,8,2,26.3,#
2008,8,3,26.5,#
2008,8,4,26.7,#
2008,8,5,24.6,#
2008,8,6,24.6,#
2008,8,7,23.9,#
2008,8,8,24.6,#
2008,8,9,25.4,#
2008,8,10,25.0,#
2008,8,11,24.2,#
2008,8,12,24.5,#
2008,8,13,26.2,#
2008,8,14,27.3,#
2008,8,15,27.5,#
2008,8,16,27.3,#
2008,8,17,27.1,#
2008,8,18,26.5,#
2008,8,19,26.8,#
2008,8,20,27.3,#
2008,8,21,27.7,#
2008,8,22,23.3,#
2008,8,23,23.0,#
2008,8,24,24.9,#
2008,8,25,25.6,#
2008,8,26,25.5,#
2008,8,27,26.1,#
2008,8,28,25.2,#
2008,8,29,26.4,#
2008,8,30,27.0,#
2008,8,31,26.8,C
2008,9,1,27.9,#
2008,9,2,24.7,#
2008,9,3,24.8,#
2008,9,4,26.0,#
2008,9,5,25.5,C
2008,9,6,25.7,#
2008,9,7,25.8,#
2008,9,8,25.8,#
2008,9,9,26.5,#
2008,9,10,26.5,#
2008,9,11,26.7,#
2008,9,12,28.2,#
2008,9,13,28.4,#
2008,9,14,28.5,#
2008,9,15,28.7,#
2008,9,16,28.7,#
2008,9,17,28.0,#
2008,9,18,26.3,#
2008,9,19,25.3,#
2008,9,20,26.9,#
2008,9,21,26.7,#
2008,9,22,28.7,#
2008,9,23,24.7,#
2008,9,24,24.3,#
2008,9,25,26.8,#
2008,9,26,26.2,#
2008,9,27,26.0,#
2008,9,28,24.6,#
2008,9,29,24.8,#
2008,9,30,24.4,#
2008,10,1,24.0,#
2008,10,2,24.2,#
2008,10,3,24.7,#
2008,10,4,25.0,#
2008,10,5,22.9,#
2008,10,6,22.8,#
2008,10,7,22.1,#
2008,10,8,23.5,#
2008,10,9,25.1,#
2008,10,10,25.6,#
2008,10,11,25.3,#
2008,10,12,25.4,#
2008,10,13,23.6,#
2008,10,14,23.1,#
2008,10,15,24.8,#
2008,10,16,24.0,#
2008,10,17,24.5,#
2008,10,18,25.4,#
2008,10,19,25.3,C
2008,10,20,24.8,#
2008,10,21,24.3,#
2008,10,22,24.2,#
2008,10,23,24.1,#
2008,10,24,25.3,#
2008,10,25,24.5,#
2008,10,26,24.9,C
2008,10,27,24.4,#
2008,10,28,23.1,#
2008,10,29,24.6,#
2008,10,30,25.2,#
2008,10,31,25.4,#
2008,11,1,25.1,#
2008,11,2,25.4,#
2008,11,3,22.2,#
2008,11,4,22.5,#
2008,11,5,24.6,#
2008,11,6,25.1,C
2008,11,7,25.2,#
2008,11,8,20.4,#
2008,11,9,18.8,#
2008,11,10,16.7,#
2008,11,11,16.4,#
2008,11,12,16.6,#
2008,11,13,19.5,#
2008,11,14,21.4,#
2008,11,15,22.1,#
2008,11,16,21.6,#
2008,11,17,21.8,#
2008,11,18,19.0,#
2008,11,19,16.3,#
2008,11,20,14.5,#
2008,11,21,16.4,#
2008,11,22,19.1,#
2008,11,23,20.3,#
2008,11,24,21.3,#
2008,11,25,18.5,#
2008,11,26,18.4,#
2008,11,27,15.4,#
2008,11,28,12.0,#
2008,11,29,13.6,#
2008,11,30,14.5,C
2008,12,1,15.6,#
2008,12,2,16.1,#
2008,12,3,17.5,#
2008,12,4,19.7,#
2008,12,5,15.8,#
2008,12,6,13.2,#
2008,12,7,12.3,#
2008,12,8,15.4,#
2008,12,9,14.9,#
2008,12,10,16.4,#
2008,12,11,17.3,#
2008,12,12,18.7,#
2008,12,13,19.3,C
2008,12,14,15.9,#
2008,12,15,13.5,#
2008,12,16,14.3,#
2008,12,17,14.7,#
2008,12,18,16.5,#
2008,12,19,16.8,#
2008,12,20,16.7,C
2008,12,21,18.9,C
2008,12,22,12.1,#
2008,12,23,11.2,#
2008,12,24,15.1,#
2008,12,25,17.4,#
2008,12,26,16.5,#
2008,12,27,17.3,#
2008,12,28,16.9,#
2008,12,29,16.7,#
2008,12,30,14.9,C
2008,12,31,12.1,#
2009,1,1,11.2,C
2009,1,2,10.4,#
2009,1,3,11.9,C
2009,1,4,14.7,C
2009,1,5,15.1,#
2009,1,6,15.6,C
2009,1,7,14.5,#
2009,1,8,11.8,#
2009,1,9,9.6,#
2009,1,10,8.9,#
2009,1,11,9.1,#
2009,1,12,10.3,#
2009,1,13,9.6,#
2009,1,14,9.6,#
2009,1,15,11.0,#
2009,1,16,11.0,#
2009,1,17,13.6,C
2009,1,18,15.2,C
2009,1,19,16.4,#
2009,1,20,15.4,#
2009,1,21,17.0,#
2009,1,22,16.0,#
2009,1,23,12.8,#
2009,1,24,10.0,C
2009,1,25,10.3,#
2009,1,26,12.5,C
2009,1,27,10.9,#
2009,1,28,12.0,C
2009,1,29,14.9,#
2009,1,30,14.2,#
2009,1,31,13.9,C
2009,2,1,15.2,#
2009,2,2,15.9,#
2009,2,3,16.1,#
2009,2,4,15.9,#
2009,2,5,16.4,#
2009,2,6,17.5,C
2009,2,7,16.3,#
2009,2,8,17.8,#
2009,2,9,16.9,#
2009,2,10,17.6,#
2009,2,11,17.5,#
2009,2,12,18.0,#
2009,2,13,21.5,#
2009,2,14,20.8,C
2009,2,15,18.7,#
2009,2,16,16.9,#
2009,2,17,16.2,#
2009,2,18,16.8,#
2009,2,19,16.6,#
2009,2,20,17.9,#
2009,2,21,16.4,C
2009,2,22,17.2,C
2009,2,23,20.0,#
2009,2,24,20.3,#
2009,2,25,20.3,#
2009,2,26,18.8,#
2009,2,27,18.7,#
2009,2,28,18.3,C
2009,3,1,17.2,C
2009,3,2,16.4,#
2009,3,3,15.8,#
2009,3,4,16.7,#
2009,3,5,17.7,#
2009,3,6,13.3,#
2009,3,7,12.9,C
2009,3,8,13.5,C
2009,3,9,14.8,#
2009,3,10,16.5,#
2009,3,11,17.2,#
2009,3,12,17.5,#
2009,3,13,13.5,#
2009,3,14,11.9,#
2009,3,15,14.6,#
2009,3,16,17.4,#
2009,3,17,17.9,#
2009,3,18,19.3,#
2009,3,19,19.7,#
2009,3,20,21.7,#
2009,3,21,20.0,#
2009,3,22,21.5,#
2009,3,23,20.4,#
2009,3,24,18.4,#
2009,3,25,16.4,#
2009,3,26,17.7,#
2009,3,27,17.4,#
2009,3,28,19.2,#
2009,3,29,18.0,#
2009,3,30,17.1,#
2009,3,31,16.4,#
2009,4,1,18.1,#
2009,4,2,16.5,#
2009,4,3,15.8,#
2009,4,4,19.5,C
2009,4,5,20.2,#
2009,4,6,15.9,#
2009,4,7,15.9,#
2009,4,8,17.8,#
2009,4,9,19.3,#
2009,4,10,19.2,#
2009,4,11,19.4,#
2009,4,12,19.9,#
2009,4,13,20.6,#
2009,4,14,21.1,#
2009,4,15,21.0,#
2009,4,16,21.2,#
2009,4,17,21.3,#
2009,4,18,20.6,#
2009,4,19,21.4,#
2009,4,20,25.4,#
2009,4,21,21.0,#
2009,4,22,20.0,#
2009,4,23,19.8,#
2009,4,24,20.9,#
2009,4,25,18.6,#
2009,4,26,17.6,#
2009,4,27,19.2,#
2009,4,28,20.1,#
2009,4,29,19.6,#
2009,4,30,20.7,#
2009,5,1,20.8,#
2009,5,2,20.7,#
2009,5,3,20.6,#
2009,5,4,20.1,#
2009,5,5,21.4,#
2009,5,6,21.9,#
2009,5,7,21.2,#
2009,5,8,21.0,#
2009,5,9,21.9,#
2009,5,10,23.0,#
2009,5,11,24.0,#
2009,5,12,23.5,#
2009,5,13,23.7,#
2009,5,14,23.4,#
2009,5,15,23.4,#
2009,5,16,22.8,#
2009,5,17,23.4,#
2009,5,18,25.7,#
2009,5,19,25.8,C
2009,5,20,23.2,#
2009,5,21,25.0,#
2009,5,22,25.5,#
2009,5,23,24.0,#
2009,5,24,23.6,#
2009,5,25,24.0,#
2009,5,26,22.7,#
2009,5,27,23.2,C
2009,5,28,22.4,#
2009,5,29,19.8,#
2009,5,30,22.0,#
2009,5,31,23.5,#
2009,6,1,23.4,#
2009,6,2,24.5,C
2009,6,3,25.2,#
2009,6,4,24.6,#
2009,6,5,25.0,#
2009,6,6,24.7,C
2009,6,7,24.6,#
2009,6,8,24.7,C
2009,6,9,23.9,C
2009,6,10,25.1,C
2009,6,11,24.2,#
2009,6,12,24.2,#
2009,6,13,27.0,C
2009,6,14,23.6,#
2009,6,15,24.2,#
2009,6,16,25.5,#
2009,6,17,26.4,#
2009,6,18,26.0,#
2009,6,19,25.1,#
2009,6,20,27.0,#
2009,6,21,27.7,C
2009,6,22,26.4,#
2009,6,23,27.8,C
2009,6,24,25.2,#
2009,6,25,26.7,#
2009,6,26,24.7,C
2009,6,27,24.6,C
2009,6,28,24.4,#
2009,6,29,25.8,#
2009,6,30,27.0,C
2009,7,1,26.8,C
2009,7,2,27.4,#
2009,7,3,27.2,#
2009,7,4,24.7,#
2009,7,5,23.4,#
2009,7,6,21.8,#
2009,7,7,26.6,#
2009,7,8,26.5,#
2009,7,9,27.0,#
2009,7,10,27.5,#
2009,7,11,25.4,#
2009,7,12,27.3,#
2009,7,13,26.6,#
2009,7,14,27.4,#
2009,7,15,27.2,#
2009,7,16,27.8,#
2009,7,17,27.2,#
2009,7,18,26.0,#
2009,7,19,23.8,#
2009,7,20,24.8,#
2009,7,21,26.5,#
2009,7,22,26.4,#
2009,7,23,25.7,#
2009,7,24,27.9,#
2009,7,25,27.6,#
2009,7,26,26.8,#
2009,7,27,25.4,C
2009,7,28,25.3,C
2009,7,29,26.5,#
2009,7,30,27.0,#
2009,7,31,26.2,#
2009,8,1,26.7,#
2009,8,2,27.8,C
2009,8,3,25.9,#
2009,8,4,25.6,#
2009,8,5,25.8,#
2009,8,6,27.0,C
2009,8,7,26.8,C
2009,8,8,28.4,#
2009,8,9,28.4,C
2009,8,10,27.4,C
2009,8,11,24.9,#
2009,8,12,25.9,C
2009,8,13,24.4,C
2009,8,14,24.9,#
2009,8,15,26.5,#
2009,8,16,27.6,C
2009,8,17,27.0,#
2009,8,18,26.9,C
2009,8,19,27.0,C
2009,8,20,27.2,C
2009,8,21,27.9,C
2009,8,22,27.6,C
2009,8,23,27.9,C
2009,8,24,27.5,C
2009,8,25,27.0,C
2009,8,26,25.5,#
2009,8,27,27.4,C
2009,8,28,27.9,#
2009,8,29,27.9,#
2009,8,30,27.7,C
2009,8,31,27.0,C
2009,9,1,27.2,C
2009,9,2,27.0,C
2009,9,3,27.5,#
2009,9,4,26.6,C
2009,9,5,28.0,C
2009,9,6,27.2,C
2009,9,7,27.6,C
2009,9,8,26.1,C
2009,9,9,25.8,C
2009,9,10,26.6,C
2009,9,11,25.8,C
2009,9,12,25.7,C
2009,9,13,25.8,C
2009,9,14,24.7,#
2009,9,15,23.8,C
2009,9,16,26.5,C
2009,9,17,26.9,#
2009,9,18,27.3,#
2009,9,19,28.3,C
2009,9,20,27.8,C
2009,9,21,27.2,C
2009,9,22,24.8,C
2009,9,23,25.2,#
2009,9,24,27.0,C
2009,9,25,27.6,C
2009,9,26,27.0,C
2009,9,27,27.1,C
2009,9,28,23.6,C
2009,9,29,23.9,C
2009,9,30,24.7,C
2009,10,1,25.1,C
2009,10,2,25.9,C
2009,10,3,25.7,C
2009,10,4,25.3,C
2009,10,5,25.6,#
2009,10,6,25.9,#
2009,10,7,23.6,#
2009,10,8,24.0,#
2009,10,9,23.6,#
2009,10,10,23.8,#
2009,10,11,23.8,#
2009,10,12,23.2,#
2009,10,13,25.3,#
2009,10,14,24.1,#
2009,10,15,22.6,C
2009,10,16,24.2,C
2009,10,17,23.6,#
2009,10,18,24.3,#
2009,10,19,24.3,#
2009,10,20,22.3,#
2009,10,21,24.1,#
2009,10,22,23.4,#
2009,10,23,22.7,C
2009,10,24,24.2,#
2009,10,25,23.9,C
2009,10,26,23.2,#
2009,10,27,23.1,#
2009,10,28,22.7,#
2009,10,29,23.4,#
2009,10,30,23.0,C
2009,10,31,23.0,C
2009,11,1,23.7,#
2009,11,2,18.6,C
2009,11,3,15.2,C
2009,11,4,17.6,#
2009,11,5,20.7,#
2009,11,6,21.5,#
2009,11,7,23.4,C
2009,11,8,23.7,C
2009,11,9,23.9,C
2009,11,10,24.0,#
2009,11,11,23.8,#
2009,11,12,23.2,C
2009,11,13,15.9,#
2009,11,14,15.2,C
2009,11,15,17.5,#
2009,11,16,12.4,C
2009,11,17,9.8,C
2009,11,18,9.3,C
2009,11,19,11.0,C
2009,11,20,13.1,#
2009,11,21,12.1,#
2009,11,22,13.0,C
2009,11,23,16.1,C
2009,11,24,17.6,#
2009,11,25,18.6,#
2009,11,26,20.0,C
2009,11,27,20.0,#
2009,11,28,19.6,#
2009,11,29,18.8,C
2009,11,30,16.8,#
2009,12,1,16.0,C
2009,12,2,17.6,#
2009,12,3,14.7,#
2009,12,4,15.0,#
2009,12,5,14.7,#
2009,12,6,16.4,#
2009,12,7,15.9,C
2009,12,8,17.5,C
2009,12,9,18.1,#
2009,12,10,18.2,C
2009,12,11,18.7,C
2009,12,12,19.2,#
2009,12,13,18.3,#
2009,12,14,18.0,C
2009,12,15,15.2,#
2009,12,16,12.1,C
2009,12,17,10.7,#
2009,12,18,10.4,#
2009,12,19,10.9,C
2009,12,20,11.1,#
2009,12,21,12.4,C
2009,12,22,14.0,C
2009,12,23,15.8,#
2009,12,24,17.9,#
2009,12,25,17.0,C
2009,12,26,16.5,#
2009,12,27,9.7,C
2009,12,28,8.1,C
2009,12,29,12.6,C
2009,12,30,15.7,C
2009,12,31,14.5,#
2010,1,1,14.4,C
2010,1,2,15.5,#
2010,1,3,15.1,#
2010,1,4,15.6,#
2010,1,5,15.3,C
2010,1,6,12.9,C
2010,1,7,11.6,C
2010,1,8,11.1,#
2010,1,9,12.0,C
2010,1,10,15.2,C
2010,1,11,11.3,#
2010,1,12,9.3,#
2010,1,13,9.5,C
2010,1,14,12.6,#
2010,1,15,13.6,C
2010,1,16,14.7,#
2010,1,17,13.7,#
2010,1,18,14.5,#
2010,1,19,15.2,#
2010,1,20,19.2,#
2010,1,21,20.1,#
2010,1,22,15.1,C
2010,1,23,13.3,C
2010,1,24,13.0,#
2010,1,25,16.1,C
2010,1,26,13.8,#
2010,1,27,14.7,#
2010,1,28,16.5,#
2010,1,29,16.2,C
2010,1,30,16.4,C
2010,1,31,18.2,C
2010,2,1,19.0,C
2010,2,2,16.2,C
2010,2,3,15.8,C
2010,2,4,15.2,C
2010,2,5,15.8,#
2010,2,6,15.9,#
2010,2,7,15.6,#
2010,2,8,16.8,#
2010,2,9,18.2,#
2010,2,10,20.5,C
2010,2,11,21.8,C
2010,2,12,11.1,C
2010,2,13,10.3,#
2010,2,14,13.9,C
2010,2,15,9.9,C
2010,2,16,8.3,#
2010,2,17,8.3,C
2010,2,18,7.5,#
2010,2,19,7.1,#
2010,2,20,10.3,C
2010,2,21,13.6,#
2010,2,22,16.3,#
2010,2,23,17.8,C
2010,2,24,19.2,#
2010,2,25,21.7,#
2010,2,26,21.0,C
2010,2,27,20.8,C
2010,2,28,19.9,C
2010,3,1,19.3,#
2010,3,2,19.9,#
2010,3,3,21.2,C
2010,3,4,20.8,#
2010,3,5,21.7,#
2010,3,6,21.7,#
2010,3,7,15.0,C
2010,3,8,12.3,C
2010,3,9,8.7,C
2010,3,10,7.4,C
2010,3,11,11.6,C
2010,3,12,15.1,#
2010,3,13,16.7,#
2010,3,14,18.2,C
2010,3,15,20.3,#
2010,3,16,16.5,#
2010,3,17,16.6,C
2010,3,18,17.4,C
2010,3,19,17.4,C
2010,3,20,18.6,C
2010,3,21,19.1,C
2010,3,22,18.5,C
2010,3,23,19.6,C
2010,3,24,20.8,#
2010,3,25,14.7,C
2010,3,26,14.7,#
2010,3,27,16.0,#
2010,3,28,15.9,#
2010,3,29,17.9,#
2010,3,30,17.1,#
2010,3,31,19.7,#
2010,4,1,20.1,C
2010,4,2,17.0,C
2010,4,3,16.3,C
2010,4,4,16.6,#
2010,4,5,19.6,#
2010,4,6,20.2,C
2010,4,7,16.9,C
2010,4,8,14.2,C
2010,4,9,17.0,C
2010,4,10,17.8,C
2010,4,11,19.1,#
2010,4,12,22.7,#
2010,4,13,18.0,C
2010,4,14,17.1,C
2010,4,15,12.3,C
2010,4,16,13.7,#
2010,4,17,16.3,C
2010,4,18,17.4,C
2010,4,19,19.6,C
2010,4,20,20.5,#
2010,4,21,22.3,#
2010,4,22,20.4,#
2010,4,23,18.6,#
2010,4,24,18.7,#
2010,4,25,18.5,C
2010,4,26,19.7,C
2010,4,27,18.9,#
2010,4,28,20.0,C
2010,4,29,17.6,C
2010,4,30,17.7,#
2010,5,1,19.9,C
2010,5,2,21.2,C
2010,5,3,21.1,#
2010,5,4,22.1,#
2010,5,5,22.3,C
2010,5,6,23.9,C
2010,5,7,22.1,#
2010,5,8,22.6,#
2010,5,9,23.0,#
2010,5,10,22.1,#
2010,5,11,21.9,#
2010,5,12,22.1,C
2010,5,13,22.3,C
2010,5,14,22.6,#
2010,5,15,21.8,C
2010,5,16,22.0,C
2010,5,17,23.3,C
2010,5,18,23.6,C
2010,5,19,21.7,C
2010,5,20,22.6,C
2010,5,21,24.9,#
2010,5,22,27.6,C
2010,5,23,25.0,#
2010,5,24,23.3,C
2010,5,25,22.5,C
2010,5,26,23.7,#
2010,5,27,23.6,#
2010,5,28,24.5,#
2010,5,29,24.2,#
2010,5,30,24.7,C
2010,5,31,22.5,C
2010,6,1,21.1,#
2010,6,2,20.0,#
2010,6,3,20.1,C
2010,6,4,21.9,#
2010,6,5,22.3,#
2010,6,6,23.4,C
2010,6,7,23.0,C
2010,6,8,23.6,#
2010,6,9,24.2,#
2010,6,10,23.9,C
2010,6,11,24.5,#
2010,6,12,25.3,#
2010,6,13,24.7,#
2010,6,14,26.0,#
2010,6,15,28.1,#
2010,6,16,27.4,#
2010,6,17,28.4,#
2010,6,18,28.2,#
2010,6,19,28.0,#
2010,6,20,28.2,#
2010,6,21,27.8,#
2010,6,22,28.1,#
2010,6,23,24.1,C
2010,6,24,24.6,C
2010,6,25,27.6,#
2010,6,26,24.8,#
2010,6,27,24.6,#
2010,6,28,23.7,#
2010,6,29,24.6,#
2010,6,30,25.9,#
2010,7,1,25.6,#
2010,7,2,27.7,C
2010,7,3,28.4,C
2010,7,4,29.0,C
2010,7,5,28.9,#
2010,7,6,28.9,C
2010,7,7,28.8,C
2010,7,8,28.5,#
2010,7,9,27.8,C
2010,7,10,26.4,#
2010,7,11,25.4,#
2010,7,12,26.9,#
2010,7,13,26.3,#
2010,7,14,26.7,#
2010,7,15,26.0,C
2010,7,16,24.7,#
2010,7,17,23.4,C
2010,7,18,23.8,#
2010,7,19,26.4,#
2010,7,20,26.8,C
2010,7,21,23.0,#
2010,7,22,23.9,C
2010,7,23,24.2,#
2010,7,24,25.6,C
2010,7,25,26.5,#
2010,7,26,26.9,C
2010,7,27,25.5,#
2010,7,28,23.3,#
2010,7,29,23.6,C
2010,7,30,26.6,C
2010,7,31,27.1,#
2010,8,1,27.5,C
2010,8,2,27.1,#
2010,8,3,26.9,#
2010,8,4,27.7,#
2010,8,5,22.3,#
2010,8,6,25.5,C
2010,8,7,25.6,#
2010,8,8,25.1,C
2010,8,9,27.4,#
2010,8,10,26.9,C
2010,8,11,26.4,C
2010,8,12,25.4,C
2010,8,13,26.7,#
2010,8,14,27.3,#
2010,8,15,25.5,#
2010,8,16,25.2,#
2010,8,17,25.0,C
2010,8,18,26.0,#
2010,8,19,24.2,#
2010,8,20,23.6,#
2010,8,21,26.8,#
2010,8,22,24.9,C
2010,8,23,23.8,C
2010,8,24,23.8,#
2010,8,25,25.6,C
2010,8,26,26.3,C
2010,8,27,25.9,#
2010,8,28,26.1,#
2010,8,29,26.9,C
2010,8,30,27.5,#
2010,8,31,27.4,C
2010,9,1,29.5,#
2010,9,2,26.1,C
2010,9,3,24.3,#
2010,9,4,25.2,C
2010,9,5,25.5,#
2010,9,6,26.4,C
2010,9,7,28.0,#
2010,9,8,25.1,C
2010,9,9,24.1,#
2010,9,10,23.5,#
2010,9,11,24.0,#
2010,9,12,23.3,#
2010,9,13,23.9,C
2010,9,14,25.3,#
2010,9,15,26.5,#
2010,9,16,26.1,#
2010,9,17,26.7,#
2010,9,18,27.5,#
2010,9,19,28.0,C
2010,9,20,23.7,C
2010,9,21,22.6,#
2010,9,22,24.6,C
2010,9,23,24.8,C
2010,9,24,25.3,#
2010,9,25,25.6,C
2010,9,26,25.4,#
2010,9,27,25.7,#
2010,9,28,25.9,C
2010,9,29,26.7,C
2010,9,30,26.5,#
2010,10,1,26.1,#
2010,10,2,25.8,#
2010,10,3,25.9,#
2010,10,4,24.0,#
2010,10,5,22.1,C
2010,10,6,22.3,C
2010,10,7,24.3,#
2010,10,8,25.1,#
2010,10,9,23.3,C
2010,10,10,24.2,C
2010,10,11,24.9,#
2010,10,12,25.7,#
2010,10,13,25.3,C
2010,10,14,25.6,C
2010,10,15,22.9,#
2010,10,16,22.2,#
2010,10,17,24.2,C
2010,10,18,24.4,#
2010,10,19,23.8,C
2010,10,20,24.8,C
2010,10,21,23.1,#
2010,10,22,20.2,C
2010,10,23,22.5,#
2010,10,24,22.5,C
2010,10,25,22.5,#
2010,10,26,18.5,#
2010,10,27,16.5,C
2010,10,28,15.4,C
2010,10,29,15.9,#
2010,10,30,15.6,C
2010,10,31,16.0,C
2010,11,1,18.5,#
2010,11,2,18.5,C
2010,11,3,18.8,#
2010,11,4,16.6,#
2010,11,5,16.3,C
2010,11,6,16.8,#
2010,11,7,19.5,#
2010,11,8,19.6,#
2010,11,9,19.4,#
2010,11,10,18.9,#
2010,11,11,17.7,#
2010,11,12,18.7,#
2010,11,13,20.3,C
2010,11,14,20.6,#
2010,11,15,20.7,C
2010,11,16,19.4,C
2010,11,17,17.6,C
2010,11,18,19.6,#
2010,11,19,19.3,#
2010,11,20,18.6,C
2010,11,21,19.2,C
2010,11,22,19.8,#
2010,11,23,19.1,#
2010,11,24,18.9,#
2010,11,25,17.4,C
2010,11,26,16.5,C
2010,11,27,17.9,#
2010,11,28,19.0,C
2010,11,29,18.8,#
2010,11,30,18.8,C
2010,12,1,17.8,C
2010,12,2,18.3,C
2010,12,3,18.3,#
2010,12,4,18.8,C
2010,12,5,18.8,#
2010,12,6,19.9,C
2010,12,7,16.1,C
2010,12,8,14.2,C
2010,12,9,14.2,C
2010,12,10,17.2,C
2010,12,11,19.0,C
2010,12,12,17.9,C
2010,12,13,19.9,C
2010,12,14,19.2,#
2010,12,15,10.5,C
2010,12,16,7.5,#
2010,12,17,6.2,#
2010,12,18,10.1,C
2010,12,19,16.1,C
2010,12,20,17.1,C
2010,12,21,18.1,C
2010,12,22,16.8,C
2010,12,23,15.3,C
2010,12,24,17.0,C
2010,12,25,10.8,C
2010,12,26,9.4,C
2010,12,27,9.8,C
2010,12,28,11.7,#
2010,12,29,14.5,C
2010,12,30,15.5,C
2010,12,31,12.9,C
2011,1,1,11.7,#
2011,1,2,13.3,C
2011,1,3,11.9,C
2011,1,4,10.1,C
2011,1,5,13.0,C
2011,1,6,10.9,C
2011,1,7,8.9,#
2011,1,8,9.1,C
2011,1,9,11.9,C
2011,1,10,10.7,C
2011,1,11,7.7,C
2011,1,12,6.6,C
2011,1,13,8.8,C
2011,1,14,13.1,#
2011,1,15,9.4,#
2011,1,16,8.0,#
2011,1,17,7.9,C
2011,1,18,11.8,#
2011,1,19,12.7,#
2011,1,20,13.6,#
2011,1,21,10.1,#
2011,1,22,10.6,C
2011,1,23,12.0,C
2011,1,24,11.1,C
2011,1,25,11.2,#
2011,1,26,11.5,#
2011,1,27,13.2,#
2011,1,28,12.6,#
2011,1,29,10.1,#
2011,1,30,7.9,#
2011,1,31,9.8,#
2011,2,1,11.1,#
2011,2,2,11.3,#
2011,2,3,12.2,#
2011,2,4,12.6,C
2011,2,5,13.5,#
2011,2,6,14.5,#
2011,2,7,15.9,C
2011,2,8,16.4,#
2011,2,9,14.5,#
2011,2,10,14.2,#
2011,2,11,13.3,#
2011,2,12,11.6,C
2011,2,13,10.2,C
2011,2,14,7.1,#
2011,2,15,9.6,C
2011,2,16,10.5,C
2011,2,17,13.8,#
2011,2,18,12.5,#
2011,2,19,11.2,C
2011,2,20,11.6,C
2011,2,21,13.1,#
2011,2,22,13.6,#
2011,2,23,14.5,#
2011,2,24,14.9,#
2011,2,25,15.5,C
2011,2,26,15.1,#
2011,2,27,16.9,#
2011,2,28,15.1,C
2011,3,1,16.5,#
2011,3,2,15.0,#
2011,3,3,13.8,#
2011,3,4,13.5,#
2011,3,5,13.9,C
2011,3,6,16.2,C
2011,3,7,13.8,#
2011,3,8,11.4,#
2011,3,9,11.7,C
2011,3,10,13.8,C
2011,3,11,14.7,#
2011,3,12,16.0,C
2011,3,13,16.2,#
2011,3,14,19.0,C
2011,3,15,13.9,C
2011,3,16,12.2,#
2011,3,17,13.5,#
2011,3,18,13.6,#
2011,3,19,14.0,C
2011,3,20,17.0,#
2011,3,21,19.6,#
2011,3,22,14.8,C
2011,3,23,13.4,#
2011,3,24,14.1,C
2011,3,25,14.0,#
2011,3,26,15.7,#
2011,3,27,12.8,#
2011,3,28,13.5,#
2011,3,29,14.9,#
2011,3,30,16.2,#
2011,3,31,16.0,#
2011,4,1,16.3,#
2011,4,2,18.0,#
2011,4,3,18.0,#
2011,4,4,16.6,#
2011,4,5,16.8,#
2011,4,6,16.7,#
2011,4,7,18.0,#
2011,4,8,18.5,#
2011,4,9,18.5,#
2011,4,10,19.0,#
2011,4,11,20.7,#
2011,4,12,19.2,#
2011,4,13,19.2,#
2011,4,14,19.6,#
2011,4,15,20.5,C
2011,4,16,21.9,C
2011,4,17,21.0,C
2011,4,18,20.9,#
2011,4,19,20.9,#
2011,4,20,19.5,#
2011,4,21,20.1,#
2011,4,22,21.0,#
2011,4,23,18.8,C
2011,4,24,19.3,#
2011,4,25,19.3,#
2011,4,26,19.8,#
2011,4,27,23.0,#
2011,4,28,21.9,C
2011,4,29,21.5,C
2011,4,30,22.3,C
2011,5,1,23.0,#
2011,5,2,23.5,C
2011,5,3,24.5,#
2011,5,4,22.0,#
2011,5,5,21.1,#
2011,5,6,22.8,#
2011,5,7,24.0,#
2011,5,8,24.5,#
2011,5,9,24.6,#
2011,5,10,24.9,#
2011,5,11,27.3,#
2011,5,12,27.3,#
2011,5,13,22.8,#
2011,5,14,22.3,C
2011,5,15,22.6,#
2011,5,16,22.8,#
2011,5,17,21.8,#
2011,5,18,21.8,#
2011,5,19,22.9,#
2011,5,20,23.9,C
2011,5,21,23.4,#
2011,5,22,22.7,#
2011,5,23,22.1,#
2011,5,24,19.0,#
2011,5,25,20.0,#
2011,5,26,22.4,#
2011,5,27,23.5,#
2011,5,28,23.4,#
2011,5,29,24.4,#
2011,5,30,22.8,C
2011,5,31,22.6,#
2011,6,1,25.9,#
2011,6,2,24.8,#
2011,6,3,25.3,#
2011,6,4,25.8,#
2011,6,5,27.1,#
2011,6,6,27.5,#
2011,6,7,27.7,#
2011,6,8,27.1,#
2011,6,9,27.1,#
2011,6,10,26.1,#
2011,6,11,26.7,#
2011,6,12,24.4,#
2011,6,13,26.2,#
2011,6,14,27.2,#
2011,6,15,26.8,#
2011,6,16,23.2,#
2011,6,17,24.7,#
2011,6,18,25.3,#
2011,6,19,26.7,#
2011,6,20,26.5,#
2011,6,21,25.1,#
2011,6,22,24.5,#
2011,6,23,27.0,#
2011,6,24,26.7,#
2011,6,25,26.6,#
2011,6,26,27.7,#
2011,6,27,27.6,#
2011,6,28,24.3,#
2011,6,29,23.8,#
2011,6,30,24.2,#
2011,7,1,24.9,#
2011,7,2,26.3,#
2011,7,3,27.2,#
2011,7,4,27.2,#
2011,7,5,27.4,#
2011,7,6,27.3,#
2011,7,7,27.5,#
2011,7,8,28.0,C
2011,7,9,27.8,C
2011,7,10,26.8,C
2011,7,11,25.0,#
2011,7,12,25.8,#
2011,7,13,25.2,#
2011,7,14,24.3,#
2011,7,15,24.6,#
2011,7,16,24.3,#
2011,7,17,25.4,C
2011,7,18,25.8,#
2011,7,19,24.8,#
2011,7,20,25.1,#
2011,7,21,26.3,C
2011,7,22,26.3,#
2011,7,23,26.2,#
2011,7,24,27.0,#
2011,7,25,28.0,#
2011,7,26,26.3,#
2011,7,27,26.9,#
2011,7,28,26.7,#
2011,7,29,24.8,#
2011,7,30,25.3,#
2011,7,31,26.1,#
2011,8,1,26.2,#
2011,8,2,26.5,#
2011,8,3,27.4,#
2011,8,4,27.3,#
2011,8,5,26.6,#
2011,8,6,27.4,#
2011,8,7,28.1,#
2011,8,8,25.1,#
2011,8,9,24.5,#
2011,8,10,23.9,#